Location: Saint Michaels Cemetery
(37.9420°N, 100.1024°W)
Time: 01:10:16
(UTC+00:00)

USA 281 - Pass Details

Date: 21 September 2020
Orbit: 1079 x 1080 km, 106.0° (Epoch: 23 October)

Event Time Altitude Azimuth Distance (km) Brightness Sun altitude
Rises 11:57:42 0° 27° (NNE) 3,883 6.6 -6.8°
Reaches altitude 10° 12:00:18 10° 32° (NNE) 2,924 6.1 -6.2°
Maximum altitude 12:06:42 54° 109° (ESE) 1,295 4.2 -5.0°
Drops below altitude 10° 12:13:05 10° 185° (S) 2,908 5.4 -3.7°
Sets 12:15:39 0° 190° (S) 3,861 6.0 -3.2°
